Two Harbors, MN

12:47 PM CDT on April 29, 2017 (GMT -0500)
Helgeson

Weather History for KTWM - March, 2013

Change the Weather History Date:

Friday, March 1, 2013

  Actual Average Record
Temperature  
Mean Temperature 13 °F -  
Max Temperature 21 °F 33 °F 54 °F (1985)
Min Temperature 1 °F 16 °F -28 °F (1962)
Degree Days  
Heating Degree Days 52    
Moisture  
Dew Point 4 °F    
Average Humidity 60    
Maximum Humidity 72    
Minimum Humidity 50    
Precipitation  
Precipitation 0.00 in - - ()
Sea Level Pressure  
Sea Level Pressure 30.34 in    
Wind  
Wind Speed 7 mph (NE)    
Max Wind Speed 14 mph    
Max Gust Speed 21 mph    
Visibility 10 miles    
Events Snow    
Averages and records for this station are not official NWS values.
T = Trace of Precipitation, MM = Missing Value Source: NWS Daily Summary

Daily Weather History Graph

Daily Weather History Graph

Search for Another Location

Airport or City:

Trip Planner

Search our weather history database for the weather conditions in past years. The results will help you decide how hot, cold, wet, or windy it might be!

Date:

Astronomy

Mar. 01, 2013 Rise Set
Actual Time 6:46 AM CST 5:52 PM CST
Civil Twilight 6:15 AM CST 6:23 PM CST
Nautical Twilight 5:40 AM CST 6:58 PM CST
Astronomical Twilight 5:05 AM CST 7:34 PM CST
Moon 10:48 PM CST (3/1) 8:14 AM CST (3/1)
Length of Visible Light 12h 07m
Length of Day
11h 06m
Waning Gibbous, 83% of the Moon is Illuminated
Mar 1
Waning Gibbous
Mar 4
Last Quarter
Mar 11
New
Mar 19
First Quarter
Mar 27
Full

Hourly Weather History & Observations

Time (CST) Temp. Windchill Dew Point Humidity Pressure Visibility Wind Dir Wind Speed Gust Speed Precip Events Conditions
12:12 AM 17.6 °F 9.3 °F 3.2 °F 53% 30.27 in 10.0 mi NE 5.8 mph - N/A   Clear
12:31 AM 17.6 °F 8.2 °F 3.2 °F 53% 30.27 in 10.0 mi NE 6.9 mph - N/A   Clear
12:51 AM 17.6 °F 9.3 °F 3.2 °F 53% 30.27 in 10.0 mi NNE 5.8 mph - N/A   Clear
1:12 AM 15.8 °F 6.1 °F 3.2 °F 58% 30.27 in 10.0 mi NNE 6.9 mph - N/A   Clear
1:31 AM 17.6 °F 9.3 °F 3.2 °F 53% 30.28 in 10.0 mi NNE 5.8 mph - N/A   Mostly Cloudy
1:51 AM 17.6 °F 8.2 °F 3.2 °F 53% 30.28 in 10.0 mi NNE 6.9 mph - N/A   Overcast
2:12 AM 17.6 °F 7.3 °F 3.2 °F 53% 30.28 in 10.0 mi NE 8.1 mph - N/A   Overcast
2:31 AM 17.6 °F 9.3 °F 3.2 °F 53% 30.28 in 10.0 mi NNE 5.8 mph - N/A   Overcast
2:51 AM 17.6 °F 8.2 °F 3.2 °F 53% 30.28 in 10.0 mi NNE 6.9 mph - N/A   Overcast
3:12 AM 15.8 °F 5.1 °F 3.2 °F 58% 30.28 in 10.0 mi NNE 8.1 mph - N/A   Overcast
3:51 AM 15.8 °F 5.1 °F 3.2 °F 58% 30.30 in 10.0 mi NNE 8.1 mph - N/A   Overcast
4:12 AM 15.8 °F 4.2 °F 3.2 °F 58% 30.30 in 10.0 mi NNE 9.2 mph - N/A   Overcast
4:31 AM 15.8 °F 6.1 °F 3.2 °F 58% 30.31 in 10.0 mi NNE 6.9 mph - N/A   Overcast
4:51 AM 15.8 °F 7.2 °F 3.2 °F 58% 30.31 in 10.0 mi NNE 5.8 mph - N/A   Overcast
5:12 AM 15.8 °F 6.1 °F 3.2 °F 58% 30.31 in 10.0 mi NNE 6.9 mph - N/A   Overcast
5:31 AM 15.8 °F 5.1 °F 3.2 °F 58% 30.32 in 10.0 mi NE 8.1 mph - N/A   Overcast
5:51 AM 14.0 °F 2.9 °F 3.2 °F 62% 30.33 in 10.0 mi NNE 8.1 mph - N/A   Overcast
6:12 AM 14.0 °F 3.9 °F 3.2 °F 62% 30.33 in 10.0 mi NNE 6.9 mph - N/A   Overcast
6:31 AM 14.0 °F 2.9 °F 3.2 °F 62% 30.33 in 10.0 mi NNE 8.1 mph - N/A Snow Light Snow
6:51 AM 12.2 °F 1.7 °F 1.4 °F 62% 30.34 in 10.0 mi North 6.9 mph - N/A Snow Light Snow
7:12 AM 12.2 °F 0.7 °F 3.2 °F 67% 30.34 in 10.0 mi NNE 8.1 mph - N/A Snow Light Snow
7:31 AM 12.2 °F 1.7 °F 3.2 °F 67% 30.35 in 10.0 mi NNE 6.9 mph - N/A   Overcast
7:51 AM 12.2 °F 1.7 °F 3.2 °F 67% 30.35 in 10.0 mi North 6.9 mph - N/A Snow Light Snow
8:12 AM 14.0 °F 5.1 °F 3.2 °F 62% 30.36 in 10.0 mi NNE 5.8 mph - N/A   Overcast
8:31 AM 14.0 °F 3.9 °F 3.2 °F 62% 30.37 in 10.0 mi NNE 6.9 mph - N/A Snow Light Snow
8:51 AM 15.8 °F 3.4 °F 3.2 °F 58% 30.37 in 10.0 mi NE 10.4 mph - N/A Snow Light Snow
9:12 AM 15.8 °F 6.1 °F 3.2 °F 58% 30.37 in 10.0 mi NNE 6.9 mph - N/A   Overcast
9:31 AM 15.8 °F 4.2 °F 3.2 °F 58% 30.37 in 10.0 mi NE 9.2 mph - N/A Snow Light Snow
9:51 AM 15.8 °F 3.4 °F 5.0 °F 62% 30.37 in 10.0 mi NE 10.4 mph - N/A   Overcast
10:12 AM 15.8 °F 4.2 °F 5.0 °F 62% 30.38 in 10.0 mi NE 9.2 mph 18.4 mph N/A   Overcast
10:31 AM 17.6 °F 6.4 °F 5.0 °F 58% 30.38 in 10.0 mi ENE 9.2 mph 16.1 mph N/A   Mostly Cloudy
10:51 AM 17.6 °F 3.7 °F 6.8 °F 63% 30.38 in 10.0 mi East 13.8 mph 20.7 mph N/A   Scattered Clouds
11:12 AM 17.6 °F 3.7 °F 6.8 °F 63% 30.38 in 10.0 mi ENE 13.8 mph - N/A   Clear
11:31 AM 19.4 °F 6.0 °F 6.8 °F 58% 30.38 in 10.0 mi ENE 13.8 mph 19.6 mph N/A   Clear
11:51 AM 19.4 °F 6.0 °F 6.8 °F 58% 30.38 in 10.0 mi East 13.8 mph 18.4 mph N/A   Clear
12:12 PM 19.4 °F 7.2 °F 6.8 °F 58% 30.38 in 10.0 mi ENE 11.5 mph 17.3 mph N/A   Clear
12:31 PM 21.2 °F 8.9 °F 6.8 °F 54% 30.37 in 10.0 mi ENE 12.7 mph 18.4 mph N/A   Clear
12:51 PM 21.2 °F 8.3 °F 6.8 °F 54% 30.37 in 10.0 mi East 13.8 mph 18.4 mph N/A   Clear
1:11 PM 21.2 °F 10.1 °F 6.8 °F 54% 30.36 in 10.0 mi NE 10.4 mph - N/A   Clear
1:31 PM 21.2 °F 8.9 °F 8.6 °F 58% 30.36 in 10.0 mi ENE 12.7 mph 18.4 mph N/A   Clear
1:51 PM 21.2 °F 8.3 °F 8.6 °F 58% 30.36 in 10.0 mi East 13.8 mph - N/A   Clear
2:11 PM 21.2 °F 9.5 °F 6.8 °F 54% 30.35 in 10.0 mi NE 11.5 mph - N/A   Clear
2:31 PM 19.4 °F 7.2 °F 8.6 °F 63% 30.35 in 10.0 mi East 11.5 mph - N/A   Clear
2:52 PM 21.2 °F 10.1 °F 6.8 °F 54% 30.35 in 10.0 mi ENE 10.4 mph - N/A   Clear
3:11 PM 21.2 °F 10.9 °F 6.8 °F 54% 30.35 in 10.0 mi ENE 9.2 mph - N/A   Clear
3:32 PM 21.2 °F 10.9 °F 5.0 °F 50% 30.36 in 10.0 mi ENE 9.2 mph - N/A   Clear
3:51 PM 21.2 °F 10.9 °F 6.8 °F 54% 30.35 in 10.0 mi ENE 9.2 mph - N/A   Clear
4:11 PM 21.2 °F 10.1 °F 6.8 °F 54% 30.35 in 10.0 mi East 10.4 mph - N/A   Clear
4:32 PM 21.2 °F 10.9 °F 5.0 °F 50% 30.35 in 10.0 mi East 9.2 mph - N/A   Clear
4:51 PM 19.4 °F 9.5 °F 6.8 °F 58% 30.36 in 10.0 mi East 8.1 mph - N/A   Clear
5:11 PM 19.4 °F 9.5 °F 6.8 °F 58% 30.36 in 10.0 mi East 8.1 mph - N/A   Clear
6:11 PM 17.6 °F - 6.8 °F 63% 30.36 in 10.0 mi Calm Calm - N/A   Clear
6:31 PM 15.8 °F - 6.8 °F 68% 30.36 in 10.0 mi Calm Calm - N/A   Clear
6:52 PM 15.8 °F 10.2 °F 5.0 °F 62% 30.36 in 10.0 mi North 3.5 mph - N/A   Clear
7:11 PM 15.8 °F 10.2 °F 5.0 °F 62% 30.36 in 10.0 mi NNW 3.5 mph - N/A   Clear
7:31 PM 15.8 °F 8.6 °F 5.0 °F 62% 30.35 in 10.0 mi North 4.6 mph - N/A   Clear
7:52 PM 14.0 °F 6.5 °F 3.2 °F 62% 30.35 in 10.0 mi North 4.6 mph - N/A   Clear
8:11 PM 12.2 °F 4.3 °F 3.2 °F 67% 30.35 in 10.0 mi North 4.6 mph - N/A   Clear
8:31 PM 10.4 °F 4.0 °F 1.4 °F 67% 30.35 in 10.0 mi NNW 3.5 mph - N/A   Clear
8:51 PM 10.4 °F 2.2 °F 1.4 °F 67% 30.35 in 10.0 mi North 4.6 mph - N/A   Clear
9:11 PM 10.4 °F 4.0 °F 1.4 °F 67% 30.34 in 10.0 mi North 3.5 mph - N/A   Clear
9:31 PM 6.8 °F -2.0 °F -0.4 °F 72% 30.34 in 10.0 mi North 4.6 mph - N/A   Clear
9:51 PM 6.8 °F -2.0 °F -0.4 °F 72% 30.34 in 10.0 mi North 4.6 mph - N/A   Clear
10:11 PM 5.0 °F -4.1 °F -2.2 °F 72% 30.33 in 10.0 mi NNW 4.6 mph - N/A   Clear
10:51 PM 5.0 °F -4.1 °F -2.2 °F 72% 30.33 in 10.0 mi NNW 4.6 mph - N/A   Clear
11:11 PM 5.0 °F -5.6 °F -2.2 °F 72% 30.32 in 10.0 mi North 5.8 mph - N/A   Clear
11:31 PM 5.0 °F -4.1 °F -4.0 °F 66% 30.31 in 10.0 mi North 4.6 mph - N/A   Clear
11:51 PM 1.4 °F -8.3 °F -5.8 °F 72% 30.31 in 10.0 mi North 4.6 mph - N/A   Clear